Location: Chateh
(58.6667°N, 118.6000°W)
Time: 09:25:12
(UTC+00:00)

O/OREOS (USA 219) - Pass Details

Date: 08 December 2023
Orbit: 621 x 646 km, 72.0° (Epoch: 22 May)

Event Time Altitude Azimuth Distance (km) Brightness Sun altitude
Exits shadow 14:01:28 16° 342° (NNW) 1,669 ? -17.3°
Maximum altitude 14:04:21 29° 34° (NE) 1,162 ? -17.0°
Drops below altitude 10° 14:08:18 10° 95° (E) 2,012 ? -16.5°
Sets 14:10:49 0° 107° (ESE) 2,921 ? -16.2°
